Time,TemperatureF,DewpointF,PressureIn,WindDirection,WindDirectionDegrees,WindSpeedMPH,WindSpeedGustMPH,Humidity,HourlyPrecipIn,Conditions,Clouds,dailyrainin,SolarRadiationWatts/m^2,SoftwareType,DateUTC
2013-03-01 00:11:00,27.0,26.0,-100.00,NW,316,9.0,13.0,97,0.00,,,0.00,0.000000,,2013-03-01 06:11:00,
2013-03-01 00:22:00,27.0,26.0,-100.00,NW,316,9.0,13.0,97,0.00,,,0.00,0.000000,,2013-03-01 06:22:00,
2013-03-01 00:32:00,27.0,26.0,-100.00,NW,316,9.0,13.0,97,0.00,,,0.00,0.000000,,2013-03-01 06:32:00,
2013-03-01 00:42:00,27.0,26.0,-100.00,NW,316,9.0,13.0,97,0.00,,,0.00,0.000000,,2013-03-01 06:42:00,
2013-03-01 01:11:00,27.0,24.0,-100.00,NW,321,11.0,14.0,90,0.00,,,0.00,0.000000,,2013-03-01 07:11:00,
2013-03-01 01:22:00,27.0,24.0,-100.00,NW,321,11.0,14.0,90,0.00,,,0.00,0.000000,,2013-03-01 07:22:00,
2013-03-01 01:32:00,27.0,24.0,-100.00,NW,321,11.0,14.0,90,0.00,,,0.00,0.000000,,2013-03-01 07:32:00,
2013-03-01 01:42:00,27.0,24.0,-100.00,NW,321,11.0,14.0,90,0.00,,,0.00,0.000000,,2013-03-01 07:42:00,
2013-03-01 02:12:00,26.0,25.0,-100.00,NW,323,12.0,15.0,94,0.00,,,0.00,0.000000,,2013-03-01 08:12:00,
2013-03-01 02:22:00,26.0,25.0,-100.00,NW,323,12.0,15.0,94,0.00,,,0.00,0.000000,,2013-03-01 08:22:00,
2013-03-01 02:32:00,26.0,25.0,-100.00,NW,323,12.0,15.0,94,0.00,,,0.00,0.000000,,2013-03-01 08:32:00,
2013-03-01 02:42:00,26.0,25.0,-100.00,NW,323,12.0,15.0,94,0.00,,,0.00,0.000000,,2013-03-01 08:42:00,
2013-03-01 03:12:00,26.0,25.0,-100.00,NW,326,13.0,17.0,96,0.00,,,0.00,0.000000,,2013-03-01 09:12:00,
2013-03-01 03:22:00,26.0,25.0,-100.00,NW,326,13.0,17.0,96,0.00,,,0.00,0.000000,,2013-03-01 09:22:00,
2013-03-01 03:32:00,26.0,25.0,-100.00,NW,326,13.0,17.0,96,0.00,,,0.00,0.000000,,2013-03-01 09:32:00,
2013-03-01 03:42:00,26.0,25.0,-100.00,NW,326,13.0,17.0,96,0.00,,,0.00,0.000000,,2013-03-01 09:42:00,
2013-03-01 04:11:00,25.0,25.0,-100.00,NNW,333,11.0,15.0,98,0.00,,,0.00,0.000000,,2013-03-01 10:11:00,
2013-03-01 04:22:00,25.0,25.0,-100.00,NNW,333,11.0,15.0,98,0.00,,,0.00,0.000000,,2013-03-01 10:22:00,
2013-03-01 04:32:00,25.0,25.0,-100.00,NNW,333,11.0,15.0,98,0.00,,,0.00,0.000000,,2013-03-01 10:32:00,
2013-03-01 04:42:00,25.0,25.0,-100.00,NNW,333,11.0,15.0,98,0.00,,,0.00,0.000000,,2013-03-01 10:42:00,
2013-03-01 05:11:00,25.0,25.0,-100.00,NNW,333,13.0,16.0,98,0.00,,,0.00,0.000000,,2013-03-01 11:11:00,
2013-03-01 05:22:00,25.0,25.0,-100.00,NNW,333,13.0,16.0,98,0.00,,,0.00,0.000000,,2013-03-01 11:22:00,
2013-03-01 05:32:00,25.0,25.0,-100.00,NNW,333,13.0,16.0,98,0.00,,,0.00,0.000000,,2013-03-01 11:32:00,
2013-03-01 05:42:00,25.0,25.0,-100.00,NNW,333,13.0,16.0,98,0.00,,,0.00,0.000000,,2013-03-01 11:42:00,
2013-03-01 06:11:00,25.0,25.0,-100.00,NNW,344,13.0,16.0,98,0.00,,,0.00,0.000000,,2013-03-01 12:11:00,
2013-03-01 06:21:00,25.0,25.0,-100.00,NNW,344,13.0,16.0,98,0.00,,,0.00,0.000000,,2013-03-01 12:21:00,
2013-03-01 06:32:00,25.0,25.0,-100.00,NNW,344,13.0,16.0,98,0.00,,,0.00,0.000000,,2013-03-01 12:32:00,
2013-03-01 06:42:00,25.0,25.0,-100.00,NNW,344,13.0,16.0,98,0.00,,,0.00,0.000000,,2013-03-01 12:42:00,
2013-03-01 07:11:00,25.0,25.0,-100.00,NNW,342,13.0,18.0,98,0.00,,,0.00,0.000000,,2013-03-01 13:11:00,
2013-03-01 07:22:00,25.0,25.0,-100.00,NNW,342,13.0,18.0,98,0.00,,,0.00,0.000000,,2013-03-01 13:22:00,
2013-03-01 07:32:00,25.0,25.0,-100.00,NNW,342,13.0,18.0,98,0.00,,,0.00,0.000000,,2013-03-01 13:32:00,
2013-03-01 07:42:00,25.0,25.0,-100.00,NNW,342,13.0,18.0,98,0.00,,,0.00,0.000000,,2013-03-01 13:42:00,
2013-03-01 08:11:00,25.0,24.0,-100.00,North,349,13.0,18.0,97,0.00,,,0.00,43.000000,,2013-03-01 14:11:00,
2013-03-01 08:21:00,25.0,24.0,-100.00,North,349,13.0,18.0,97,0.00,,,0.00,43.000000,,2013-03-01 14:21:00,
2013-03-01 08:32:00,25.0,24.0,-100.00,North,349,13.0,18.0,97,0.00,,,0.00,43.000000,,2013-03-01 14:32:00,
2013-03-01 08:42:00,25.0,24.0,-100.00,North,349,13.0,18.0,97,0.00,,,0.00,43.000000,,2013-03-01 14:42:00,
2013-03-01 10:11:00,27.0,24.0,-100.00,NNE,16,13.0,17.0,88,-99.99,,,0.00,248.000000,,2013-03-01 16:11:00,
2013-03-01 10:21:00,27.0,24.0,-100.00,NNE,16,13.0,17.0,88,-99.99,,,0.00,248.000000,,2013-03-01 16:21:00,
2013-03-01 10:32:00,27.0,24.0,-100.00,NNE,16,13.0,17.0,88,-99.99,,,0.00,248.000000,,2013-03-01 16:32:00,
2013-03-01 10:42:00,27.0,24.0,-100.00,NNE,16,13.0,17.0,88,-99.99,,,0.00,248.000000,,2013-03-01 16:42:00,
2013-03-01 11:11:00,28.0,24.0,-100.00,NNE,30,15.0,18.0,83,0.00,,,0.00,421.000000,,2013-03-01 17:11:00,
2013-03-01 11:21:00,28.0,24.0,-100.00,NNE,30,15.0,18.0,83,0.00,,,0.00,421.000000,,2013-03-01 17:21:00,
2013-03-01 11:32:00,28.0,24.0,-100.00,NNE,30,15.0,18.0,83,0.00,,,0.00,421.000000,,2013-03-01 17:32:00,
2013-03-01 11:41:00,28.0,24.0,-100.00,NNE,30,15.0,18.0,83,0.00,,,0.00,421.000000,,2013-03-01 17:41:00,
2013-03-01 12:12:00,28.0,23.0,-100.00,NNE,29,14.0,19.0,81,0.00,,,0.00,609.000000,,2013-03-01 18:12:00,
2013-03-01 12:22:00,28.0,23.0,-100.00,NNE,29,14.0,19.0,81,0.00,,,0.00,609.000000,,2013-03-01 18:22:00,
2013-03-01 12:32:00,28.0,23.0,-100.00,NNE,29,14.0,19.0,81,0.00,,,0.00,609.000000,,2013-03-01 18:32:00,
2013-03-01 12:42:00,28.0,23.0,-100.00,NNE,29,14.0,19.0,81,0.00,,,0.00,609.000000,,2013-03-01 18:42:00,
2013-03-01 13:01:00,30.0,23.0,-100.00,NNE,24,11.0,17.0,75,0.00,,,0.00,694.000000,,2013-03-01 19:01:00,
2013-03-01 13:11:00,30.0,23.0,-100.00,NNE,24,11.0,17.0,75,0.00,,,0.00,694.000000,,2013-03-01 19:11:00,
2013-03-01 13:21:00,30.0,23.0,-100.00,NNE,24,11.0,17.0,75,0.00,,,0.00,694.000000,,2013-03-01 19:21:00,
2013-03-01 13:32:00,30.0,23.0,-100.00,NNE,24,11.0,17.0,75,0.00,,,0.00,694.000000,,2013-03-01 19:32:00,
2013-03-01 13:42:00,30.0,23.0,-100.00,NNE,24,11.0,17.0,75,0.00,,,0.00,694.000000,,2013-03-01 19:42:00,
2013-03-01 14:11:00,28.0,22.0,-100.00,North,357,10.0,15.0,79,0.00,,,0.00,563.000000,,2013-03-01 20:11:00,
2013-03-01 14:21:00,28.0,22.0,-100.00,North,357,10.0,15.0,79,0.00,,,0.00,563.000000,,2013-03-01 20:21:00,
2013-03-01 14:32:00,28.0,22.0,-100.00,North,357,10.0,15.0,79,0.00,,,0.00,563.000000,,2013-03-01 20:32:00,
2013-03-01 14:42:00,28.0,22.0,-100.00,North,357,10.0,15.0,79,0.00,,,0.00,563.000000,,2013-03-01 20:42:00,
2013-03-01 15:01:00,28.0,21.0,-100.00,North,8,11.0,16.0,75,0.00,,,-99.99,475.000000,,2013-03-01 21:01:00,
2013-03-01 15:11:00,28.0,21.0,-100.00,North,8,11.0,16.0,75,0.00,,,-99.99,475.000000,,2013-03-01 21:11:00,
2013-03-01 15:21:00,28.0,21.0,-100.00,North,8,11.0,16.0,75,0.00,,,-99.99,475.000000,,2013-03-01 21:21:00,
2013-03-01 15:32:00,28.0,21.0,-100.00,North,8,11.0,16.0,75,0.00,,,-99.99,475.000000,,2013-03-01 21:32:00,
2013-03-01 15:42:00,28.0,21.0,-100.00,North,8,11.0,16.0,75,0.00,,,-99.99,475.000000,,2013-03-01 21:42:00,
2013-03-01 16:01:00,27.0,21.0,-100.00,North,3,9.0,16.0,78,0.00,,,0.00,287.000000,,2013-03-01 22:01:00,
2013-03-01 16:11:00,27.0,21.0,-100.00,North,3,9.0,16.0,78,0.00,,,0.00,287.000000,,2013-03-01 22:11:00,
2013-03-01 16:21:00,27.0,21.0,-100.00,North,3,9.0,16.0,78,0.00,,,0.00,287.000000,,2013-03-01 22:21:00,
2013-03-01 16:32:00,27.0,21.0,-100.00,North,3,9.0,16.0,78,0.00,,,0.00,287.000000,,2013-03-01 22:32:00,
2013-03-01 16:42:00,27.0,21.0,-100.00,North,3,9.0,16.0,78,0.00,,,0.00,287.000000,,2013-03-01 22:42:00,
2013-03-01 17:01:00,26.0,19.0,-100.00,North,359,11.0,15.0,74,0.00,,,0.00,144.000000,,2013-03-01 23:01:00,
2013-03-01 17:11:00,26.0,19.0,-100.00,North,359,11.0,15.0,74,0.00,,,0.00,144.000000,,2013-03-01 23:11:00,
2013-03-01 17:21:00,26.0,19.0,-100.00,North,359,11.0,15.0,74,0.00,,,0.00,144.000000,,2013-03-01 23:21:00,
2013-03-01 17:31:00,26.0,19.0,-100.00,North,359,11.0,15.0,74,0.00,,,0.00,144.000000,,2013-03-01 23:31:00,
2013-03-01 17:41:00,26.0,19.0,-100.00,North,359,11.0,15.0,74,0.00,,,0.00,144.000000,,2013-03-01 23:41:00,
2013-03-01 18:02:00,25.0,19.0,-100.00,North,7,10.0,17.0,79,0.00,,,0.00,57.000000,,2013-03-02 00:02:00,
2013-03-01 18:12:00,25.0,19.0,-100.00,North,7,10.0,17.0,79,0.00,,,0.00,57.000000,,2013-03-02 00:12:00,
2013-03-01 18:22:00,25.0,19.0,-100.00,North,7,10.0,17.0,79,0.00,,,0.00,57.000000,,2013-03-02 00:22:00,
2013-03-01 18:32:00,25.0,19.0,-100.00,North,7,10.0,17.0,79,0.00,,,0.00,57.000000,,2013-03-02 00:32:00,
2013-03-01 18:42:00,25.0,19.0,-100.00,North,7,10.0,17.0,79,0.00,,,0.00,57.000000,,2013-03-02 00:42:00,
2013-03-01 19:11:00,25.0,20.0,-100.00,North,4,7.0,14.0,80,0.00,,,0.00,3.000000,,2013-03-02 01:11:00,
2013-03-01 19:21:00,25.0,20.0,-100.00,North,4,7.0,14.0,80,0.00,,,0.00,3.000000,,2013-03-02 01:21:00,
2013-03-01 19:31:00,25.0,20.0,-100.00,North,4,7.0,14.0,80,0.00,,,0.00,3.000000,,2013-03-02 01:31:00,
2013-03-01 19:41:00,25.0,20.0,-100.00,North,4,7.0,14.0,80,0.00,,,0.00,3.000000,,2013-03-02 01:41:00,
2013-03-01 20:01:00,24.0,17.0,-100.00,NNW,348,12.0,15.0,73,0.00,,,0.00,0.000000,,2013-03-02 02:01:00,
2013-03-01 20:11:00,24.0,17.0,-100.00,NNW,348,12.0,15.0,73,0.00,,,0.00,0.000000,,2013-03-02 02:11:00,
2013-03-01 20:22:00,24.0,17.0,-100.00,NNW,348,12.0,15.0,73,0.00,,,0.00,0.000000,,2013-03-02 02:22:00,
2013-03-01 20:32:00,24.0,17.0,-100.00,NNW,348,12.0,15.0,73,0.00,,,0.00,0.000000,,2013-03-02 02:32:00,
2013-03-01 20:42:00,24.0,17.0,-100.00,NNW,348,12.0,15.0,73,0.00,,,0.00,0.000000,,2013-03-02 02:42:00,
2013-03-01 21:11:00,24.0,16.0,-100.00,North,10,9.0,18.0,71,0.00,,,0.00,0.000000,,2013-03-02 03:11:00,
2013-03-01 21:21:00,24.0,16.0,-100.00,North,10,9.0,18.0,71,0.00,,,0.00,0.000000,,2013-03-02 03:21:00,
2013-03-01 21:32:00,24.0,16.0,-100.00,North,10,9.0,18.0,71,0.00,,,0.00,0.000000,,2013-03-02 03:32:00,
2013-03-01 21:42:00,24.0,16.0,-100.00,North,10,9.0,18.0,71,0.00,,,0.00,0.000000,,2013-03-02 03:42:00,
2013-03-01 22:11:00,24.0,17.0,-100.00,North,6,7.0,20.0,75,0.00,,,0.00,0.000000,,2013-03-02 04:11:00,
2013-03-01 22:21:00,24.0,17.0,-100.00,North,6,7.0,20.0,75,0.00,,,0.00,0.000000,,2013-03-02 04:21:00,
2013-03-01 22:32:00,24.0,17.0,-100.00,North,6,7.0,20.0,75,0.00,,,0.00,0.000000,,2013-03-02 04:32:00,
2013-03-01 22:42:00,24.0,17.0,-100.00,North,6,7.0,20.0,75,0.00,,,0.00,0.000000,,2013-03-02 04:42:00,
2013-03-01 23:12:00,23.0,17.0,-100.00,NNW,336,8.0,12.0,78,0.00,,,0.00,0.000000,,2013-03-02 05:12:00,
2013-03-01 23:22:00,23.0,17.0,-100.00,NNW,336,8.0,12.0,78,0.00,,,0.00,0.000000,,2013-03-02 05:22:00,
2013-03-01 23:32:00,23.0,17.0,-100.00,NNW,336,8.0,12.0,78,0.00,,,0.00,0.000000,,2013-03-02 05:32:00,
2013-03-01 23:42:00,23.0,17.0,-100.00,NNW,336,8.0,12.0,78,0.00,,,0.00,0.000000,,2013-03-02 05:42:00,